ROMMA est une association bénévole à but non lucratif. Votre soutien est indispensable : ADHERER à ROMMA ou FAIRE un DON

Granges-lès-Beaumont - (26, Drôme)

Drôme des Collines (155 m)   Longitude: 04°58'E   Latitude: 45°03'N Station partenaire n°123
 

Détail journalier du     <<     >>

Température Precipitation Humidité Pression Vent Dir Rafale Dir. rafale Ensol.
Heure (°C) (mm) (%) (hPa) (km/h) (km/h) (min)
01:00 -0.5095103400---0
02:00 -1.0095103300---0
03:00 -1.3095103400---0
04:00 -1.3095103400---0
05:00 -1.9095103300---0
06:00 -2.1095103300---0
07:00 -1.509610332---10NNO0
08:00 -2.309510334E10N0
09:00 -2.109510332NNE8OSO0
10:00 -0.7096103405NNE10
11:00 1.609210341NNE5NNE60
12:00 4.808510342SSO6SSO60
13:00 3.309110335OSO8OSO60
14:00 5.708610322OSO8OSO60
15:00 6.208810327OSO11OSO60
16:00 7.708210315SO11OSO60
17:00 6.608510313ONO6ONO30
18:00 4.809010323ONO6ONO0
19:00 2.809210323NO8NO0
20:00 2.3095103206N0
21:00 2.609310322ONO10ONO0
22:00 1.1094103200---0
23:00 0.4094103200---0
minuit -0.5095103206NNO0

Graphique du 31-12-2019

 

Serveur OMMA